Flag for France Weather past 2 weeks in Bastia, Corsica, France

Now
81 °F

Scattered clouds.


Feels Like: 85 °F
Forecast: 66 / 78 °F
Wind: 15 mph from Southeast

Location: Bastia Airport

Current Time: Jul 26, 2014 at 1:16:51 PM

Latest Report: Jul 26, 2014 at 12:30 PM


Visibility: N/A

Pressure: 29.83 "Hg

Humidity: 74%

Dew point: 72 °F

Location of BastiaLocation

Historic Weather in Bastia — Graph

°F

Bastia temperature yesterday

Maximum temperature yesterday: 81 °F (at 11:00 AM)
Minimum temperature yesterday: 66 °F (at 3:30 AM)
Average temperature yesterday: 73 °F

Past Weeks' High & Low Weather Summary

 TemperatureHumidityPressure
High88 °F (Jul 16, 2:30 PM)94% (Jul 12, 5:30 AM)30.09 "Hg (Jul 12, 5:30 AM)
Low59 °F (Jul 13, 5:00 AM)31% (Jul 21, 11:30 AM)29.71 "Hg (Jul 22, 3:30 AM)
Average74 °F69%29.92 "Hg
* Reported Jul 11 12:00 Noon — Jul 26 12:00 Noon, Bastia, Weather by CustomWeather, © 2014

Note: Actual official high and low records may vary slightly from our data, if they occured in-between our weather recording intervals... More about our weather records

Advertising

Bastia weather history for previous 24 hours

 ConditionsComfort  
Time TempWeatherWind HumidityBarometerVisibility
12:00 PM
Jul 26
81 °FScattered clouds.14 mph74%29.83 "HgN/A
11:30 AM81 °FScattered clouds.13 mph70%29.83 "HgN/A
11:00 AM81 °FScattered clouds.9 mph70%29.83 "HgN/A
10:30 AM79 °FScattered clouds.5 mph70%29.83 "HgN/A
10:00 AM77 °FScattered clouds.3 mph69%29.83 "HgN/A
9:30 AM75 °FScattered clouds.2 mph69%29.83 "HgN/A
9:00 AM75 °FPartly sunny.No wind78%29.86 "HgN/A
8:30 AM72 °FPartly sunny.No wind83%29.86 "HgN/A
8:00 AM70 °FPartly sunny.2 mph94%29.86 "HgN/A
7:30 AM68 °FPartly sunny.No wind94%29.83 "HgN/A
7:00 AM68 °FPartly cloudy.No wind88%29.83 "HgN/A
6:30 AM66 °FPassing clouds.3 mph94%29.83 "HgN/A
6:00 AM68 °FPassing clouds.No wind88%29.83 "HgN/A
5:30 AM66 °FPassing clouds.3 mph94%29.83 "HgN/A
5:00 AM66 °FPassing clouds.5 mph94%29.83 "HgN/A
4:30 AM66 °FPassing clouds.5 mph94%29.83 "HgN/A
4:00 AM66 °FPassing clouds.3 mph94%29.83 "HgN/A
3:30 AM66 °FPassing clouds.5 mph94%29.86 "HgN/A
3:00 AM66 °FClear.3 mph94%29.86 "HgN/A
2:30 AM68 °FClear.5 mph88%29.86 "HgN/A
2:00 AM66 °FClear.3 mph94%29.89 "HgN/A
1:30 AM66 °FClear.3 mph94%29.89 "HgN/A
1:00 AM66 °FClear.3 mph94%29.89 "HgN/A
12:30 AM68 °FPartly cloudy.2 mph88%29.89 "HgN/A
12:00 AM66 °FPassing clouds.1 mph94%29.89 "HgN/A
11:30 PM
Jul 25
66 °FPassing clouds.2 mph94%29.89 "HgN/A
11:00 PM66 °FPassing clouds.3 mph94%29.89 "HgN/A
10:30 PM66 °FPassing clouds.3 mph94%29.89 "HgN/A
10:00 PM68 °FPassing clouds.3 mph88%29.89 "HgN/A
9:30 PM70 °FScattered clouds.2 mph88%29.89 "HgN/A
9:00 PM70 °FBroken clouds.No wind88%29.86 "HgN/A
8:30 PM68 °FThunderstorms. Partly sunny.6 mph88%29.86 "Hg6 mi
8:00 PM72 °FThunderstorms. Broken clouds.5 mph78%29.89 "Hg4 mi
7:30 PM75 °FStrong thunderstorms. Broken clouds.3 mph78%29.89 "Hg4 mi
7:00 PM77 °FThundershowers. Partly sunny.6 mph74%29.89 "Hg6 mi
6:30 PM77 °FBroken clouds.7 mph79%29.89 "Hg6 mi
6:00 PM79 °FBroken clouds.7 mph70%29.89 "Hg6 mi
5:30 PM79 °FBroken clouds.6 mph74%29.89 "Hg6 mi
5:00 PM77 °FPartly sunny.5 mph79%29.89 "Hg6 mi
4:30 PM77 °FPartly sunny.3 mph74%29.89 "Hg6 mi
4:00 PM77 °FThunderstorms. Partly sunny.6 mph83%29.92 "Hg6 mi
3:30 PM77 °FThundershowers. Partly sunny.8 mph79%29.92 "HgN/A
3:00 PM79 °FBroken clouds.8 mph70%29.92 "HgN/A
2:30 PM79 °FBroken clouds.9 mph74%29.92 "HgN/A
2:00 PM79 °FScattered clouds.10 mph70%29.92 "HgN/A
1:30 PM81 °FScattered clouds.12 mph66%29.92 "HgN/A
1:00 PM81 °FScattered clouds.12 mph66%29.92 "HgN/A
Weather by CustomWeather, © 2014

See weather overviewHow to use our weather pages